Gao Fen 1-03

operational
NORAD ID: 43260 Int'l Des: 2018-031 Owner: CNSAS Country: CN
LEOCIRCULARRETROGRADESSO

Über Gao Fen 1-03

Beschreibung wird geladen...

Live-Position

3D-Globus wird geladen...

Nächste Überflüge

Höhenverlauf

Altitude vs Time

uPlot chart will show altitude changes over time

Zweizeiliger Elementsatz

1 43260U 18031B 26062.62189822 .00001159 00000-0 17395-3 0 9996
2 43260 98.0648 125.2516 0003981 66.1813 293.9813 14.76463973427110
Epoch: 3. März 2026 • Age: 29 hours

Aktueller Status

Höhe 657.9 km
Geschwindigkeit 7.53 km/s
Subsatellitenpunkt -43.07°S, 109.08°W
Startdatum 31. März 2018
Alter 7.9 years
Typ other

Technische Details

Klassifizierung Payload
Masse 805.00 kg
Trockenmasse 700.00 kg
Gesamtmasse 805.00 kg
Länge 1.90 m
Durchmesser 1.50 m
Spannweite 4.00 m
Form Box+2 pan
Hersteller DFHZ
Bus-Typ CAST-2000
Phasenstatus In Orbit
Besitzer/Staat CNSAS/CN

Große Konstellationen

Loading constellations...